weather.gov     
National Weather Service

Terminal Aerodrome Forecast
NWS Homepage
This page is being discontinued on March 12, 2014.
The same data is available at this site. Please update your bookmarks.
Thank you, and we apologize for the inconvenience.
Please send an email to SR-SRH.Webmaster@noaa.gov with any concerns.


Current Version
Previous Version:    01  02  03  04  05  06  07  08  09  10  11  12  13  14  
[Printable]
225
FTUS41 KBOX 021415 AAA
TAFHYA
TAF AMD
KHYA 021415Z 0214/0312 03016G25KT 6SM -RA BR OVC008
     FM021900 04016G24KT P6SM BKN015
     FM030200 03011KT P6SM BKN020
     FM030400 03010KT P6SM SCT020
     FM030700 03010KT P6SM SCT250=




225
FTUS41 KBOX 021415 AAA
TAFHYA
TAF AMD
KHYA 021415Z 0214/0312 03016G25KT 6SM -RA BR OVC008
     FM021900 04016G24KT P6SM BKN015
     FM030200 03011KT P6SM BKN020
     FM030400 03010KT P6SM SCT020
     FM030700 03010KT P6SM SCT250=


U.S. Dept. of Commerce
NOAA National Weather Service
1325 East West Highway
Silver Spring, MD 20910
E-mail: w-nws.webmaster@noaa.gov
Page last modified: May 16, 2007
NATIONAL WEATHER SERVICE: for Safety, for Work, for Fun - FOR LIFE